PDT,Max TemperatureF,Mean TemperatureF,Min TemperatureF,Max Dew PointF,MeanDew PointF,Min DewpointF,Max Humidity, Mean Humidity, Min Humidity, Max Sea Level PressureIn, Mean Sea Level PressureIn, Min Sea Level PressureIn, Max VisibilityMiles, Mean VisibilityMiles, Min VisibilityMiles, Max Wind SpeedMPH, Mean Wind SpeedMPH, Max Gust SpeedMPH,PrecipitationIn, CloudCover, Events, WindDirDegrees
2013-10-1,51,40,28,32,27,21,86,62,25,30.06,29.90,29.72,9,9,9,9,5,20,0.00,0,,195
2013-10-2,46,36,25,36,29,23,93,77,47,30.25,30.13,30.05,9,9,9,8,4,,0.00,3,Rain,186
2013-10-3,53,40,26,36,28,24,93,69,24,30.46,30.39,30.27,9,9,9,6,2,,0.04,1,,166
2013-10-4,47,38,28,33,30,24,87,67,43,30.45,30.37,30.25,9,9,9,13,7,22,0.00,1,Rain,180
2013-10-5,51,46,40,41,36,30,71,62,46,30.28,30.21,30.15,9,9,9,12,7,18,0.00,2,,171
2013-10-6,60,51,42,43,38,25,87,67,20,30.14,29.96,29.72,9,9,9,13,5,24,0.00,0,,174
2013-10-7,56,49,42,37,32,25,66,52,30,29.76,29.70,29.65,9,9,9,13,9,38,0.00,2,Rain,201
2013-10-8,44,38,32,36,32,27,93,76,48,30.19,29.94,29.77,9,8,1,17,6,23,0.04,5,Rain-Snow,328
2013-10-9,46,36,26,34,28,23,93,78,45,30.22,30.03,29.80,9,9,7,12,5,22,0.00,4,Rain,188
2013-10-10,49,40,32,32,29,21,93,70,27,30.09,29.93,29.81,9,9,5,10,4,,0.02,5,Rain,324
2013-10-11,47,35,23,31,26,19,86,68,43,30.19,30.14,30.09,9,9,9,7,2,,0.00,2,,188
2013-10-12,40,37,34,34,32,27,93,82,59,30.32,30.17,30.07,9,9,6,7,4,,0.00,8,Rain,334
2013-10-13,50,38,26,31,26,23,86,65,26,30.47,30.38,30.32,9,9,9,5,1,,0.02,3,,4
2013-10-14,56,40,23,34,27,19,86,66,31,30.56,30.50,30.46,9,9,9,7,2,,0.02,0,,94
2013-10-15,48,39,30,41,36,27,93,83,51,30.43,30.31,30.22,9,8,2,8,5,,0.02,5,Rain,286
2013-10-16,51,41,31,41,35,28,93,79,45,30.34,30.28,30.21,9,9,9,8,2,,0.00,6,Rain,354
2013-10-17,55,40,26,36,29,23,93,72,27,30.45,30.39,30.33,9,9,9,5,1,,0.00,0,,56
2013-10-18,54,40,26,36,29,23,93,78,40,30.37,30.30,30.24,9,8,2,5,2,,0.00,2,,198
2013-10-19,60,44,29,36,32,26,93,69,30,30.27,30.24,30.21,9,9,9,8,4,,0.02,0,,266
2013-10-20,64,48,33,41,35,29,87,64,28,30.27,30.25,30.22,9,9,9,12,2,17,0.02,2,,326
2013-10-21,62,46,31,39,34,28,93,72,37,30.30,30.25,30.20,9,9,9,5,3,,0.00,0,,188
2013-10-22,59,44,28,41,34,26,100,83,45,30.29,30.22,30.18,9,5,0,5,3,,0.00,4,,193
2013-10-23,52,41,30,41,33,27,100,86,59,30.27,30.18,30.09,9,4,0,8,3,,0.00,5,,205
2013-10-24,43,36,30,41,35,27,100,92,83,30.24,30.13,30.07,9,2,0,7,3,,0.00,5,,190
2013-10-25,49,36,24,43,27,21,100,88,71,30.39,30.24,30.14,9,3,0,5,0,,0.00,5,,201
2013-10-26,43,36,30,40,34,30,100,92,87,30.41,30.25,30.03,9,2,0,7,2,,0.01,6,Rain,221
2013-10-27,42,38,33,39,33,20,100,81,47,30.36,30.13,29.98,9,8,2,21,8,36,0.20,6,Rain,326
2013-10-28,37,29,21,19,17,15,80,59,35,30.38,30.31,30.24,9,9,9,16,10,31,0.00,2,,324
2013-10-29,42,28,15,19,16,11,86,66,32,30.22,30.09,30.01,9,9,9,6,2,,0.00,0,,189
2013-10-30,43,34,25,27,23,19,80,61,38,30.06,29.97,29.84,9,9,9,12,6,21,0.00,3,Rain,193
2013-10-31,51,40,30,37,30,25,81,68,51,30.16,30.03,29.91,9,9,9,13,7,20,0.00,2,Rain,213